This demonstration page uses our WeatherBlox Daily Observations layout. Learn more.

Left ArrowRight Arrow

Hourly Observations for May 24, 2021

Temp ( °F °C ) Dew Point ( °F °C ) Humidity (%) Winds ( mph kmh ) Pressure ( in mb ) Visibility ( mi km ) Precip ( " mm )
12:53 am 00:53 Clear 67 19.4 59 15 76 76 Calm 30.14 1021 10 16 0.00 0.00
1:53 am 01:53 Clear 66 18.9 60 15.6 81 81 Calm 30.14 1021 10 16 0.00 0.00
2:53 am 02:53 Clear 65 18.3 59 15 81 81 Calm 30.12 1020 10 16 0.00 0.00
3:53 am 03:53 Clear 63 17.2 59 15 87 87 Calm 30.11 1020 10 16 0.00 0.00
4:53 am 04:53 Clear 62 16.7 59 15 90 90 Calm 30.11 1020 10 16 0.00 0.00
5:53 am 05:53 Clear 62 16.7 59 15 90 90 Calm 30.12 1020 10 16 0.00 0.00
6:53 am 06:53 Sunny 61 16.1 59 15 93 93 Calm 30.14 1021 9 14 0.00 0.00
7:53 am 07:53 Sunny 66 18.9 62 16.7 87 87 Calm 30.16 1022 10 16 0.00 0.00
8:53 am 08:53 Sunny 72 22.2 61 16.1 68 68 Calm 30.18 1022 10 16 0.00 0.00
9:53 am 09:53 Sunny 78 25.6 61 16.1 56 56 NE 6 9 30.19 1022 10 16 0.00 0.00
10:53 am 10:53 Sunny 82 27.8 62 16.7 51 51 Calm 30.18 1022 10 16 0.00 0.00
11:53 am 11:53 Sunny 85 29.4 61 16.1 45 45 Calm 30.17 1022 10 16 0.00 0.00
12:53 pm 12:53 Sunny 86 30 57 13.9 37 37 Calm 30.16 1022 10 16 0.00 0.00
1:53 pm 13:53 Mostly Sunny 87 30.6 54 12.2 32 32 W 7 11 30.14 1021 10 16 0.00 0.00
2:53 pm 14:53 Sunny 88 31.1 55 12.8 33 33 VRB 5 7 30.12 1020 10 16 0.00 0.00
3:53 pm 15:53 Cloudy 89 31.7 58 14.4 35 35 NW 9 15 30.11 1020 10 16 0.00 0.00
4:53 pm 16:53 Mostly Sunny 90 32.2 59 15 35 35 WNW 10 17 30.10 1019 10 16 0.00 0.00
5:53 pm 17:53 Mostly Cloudy 88 31.1 59 15 38 38 NNW 8 13 30.10 1019 10 16 0.00 0.00
6:53 pm 18:53 Mostly Sunny 87 30.6 60 15.6 40 40 NNW 5 7 30.10 1019 10 16 0.00 0.00
7:53 pm 19:53 Sunny 85 29.4 61 16.1 45 45 NNW 3 6 30.10 1019 10 16 0.00 0.00
8:53 pm 20:53 Clear 80 26.7 62 16.7 54 54 NNW 3 6 30.11 1020 10 16 0.00 0.00
9:53 pm 21:53 Clear 78 25.6 61 16.1 56 56 NNW 3 6 30.12 1020 10 16 0.00 0.00
10:53 pm 22:53 Clear 73 22.8 63 17.2 71 71 Calm 30.14 1021 10 16 0.00 0.00
11:53 pm 23:53 Clear 72 22.2 64 17.8 76 76 Calm 30.14 1021 10 16 0.00 0.00

Powered by AerisWeather